AirNav   Everest Fuels
 
 871 users online  

MO41 Landing Pad
Troy, Missouri, USA

GOING TO TROY?


FAA INFORMATION EFFECTIVE 28 MARCH 2019

Location

FAA Identifier: MO41
Lat/Long: 38-58-55.6700N / 090-57-47.1100W
38-58.927833N / 090-57.785167W
38.9821306 / -90.9630861
(estimated)
Elevation: 520 ft. / 158 m (estimated)
Variation: 01E (1995)
Time zone: UTC -5 (UTC -6 during Standard Time)
Zip code: 63379

Heliport Operations

Heliport use: Private use, MEDICAL USE.
Activation date: 10/1997
Control tower: no
ARTCC: KANSAS CITY CENTER
FSS: SAINT LOUIS FLIGHT SERVICE STATION
Attendance: CONTINUOUS
Wind indicator: yes
Segmented circle: no
Lights: FOR FLOOD LGTS CALL 314-528-8551.

Nearby radio navigation aids

VOR radial/distance  VOR name  Freq  Var
FTZr356/17.3FORISTELL VORTAC110.8005E
STLr287/23.6ST LOUIS VORTAC117.4001E
CSXr296/31.3CARDINAL VOR/DME116.4500E

Heliport Services

Runway Information

Helipad H1

Dimensions: 50 x 50 ft. / 15 x 15 m
Surface: concrete
Runway edge lights: IN GROUND GREEN FLUSH LED LIGHTING
Latitude: 38-58.927833N
Longitude: 090-57.785167W
Elevation: 520.0 ft.
Traffic pattern: leftleft

Heliport Ownership and Management from official FAA records

Ownership: Privately-owned
Owner: LINCOLN COUNTY MEMORIAL HOSP.
1000 EAST CHERRY STREET
TROY, MO 63379
Phone 314-528-8551
Manager: ED JACQUIN.
1000 EAST CHERRY STREET
TROY, MO 63379
Phone 314-528-8551

Additional Remarks

OWNER DESIRES HELIPORT NOT BE CHARTED.
FOR CD CTC ST LOUIS APCH AT 314-890-1018.

Instrument Procedures

There are no published instrument procedures at MO41.

Some nearby airports with instrument procedures:

KFYG - Washington Regional Airport (24 nm S)
KSUS - Spirit of St Louis Airport (24 nm SE)
KSET - St Charles County Smartt Airport (25 nm E)
H19 - Bowling Green Municipal Airport (26 nm NW)
1H0 - Creve Coeur Airport (26 nm SE)
 
Loc | Ops | Rwys | IFR | FBO | Links
Com | Nav | Svcs | Stats | Notes

Kansas City Aviation Department
 
Area around MO41 (Landing Pad)
 
Road maps at: MapQuest Bing Google
 
Aerial photo
No photo
 
Sectional chart

 
Airport distance calculator
Flying to Landing Pad? Find the distance to fly.

From to MO41

Sunrise and sunset
Times for 19-Apr-2019
 Local
(UTC-5)
 Zulu
(UTC)
Morning civil twilight05:5510:55
Sunrise06:2311:23
Sunset19:4400:44
Evening civil twilight20:1101:11

Current date and time
Zulu (UTC)  20-Apr-2019 01:50:06
Local (UTC-5)  19-Apr-2019 20:50:06
 
METAR
KFYG 
24nm S 
200115Z AUTO 34011KT 10SM CLR 12/M01 A2983 RMK AO2
KSUS 
25nm SE 
200054Z 35011KT 10SM CLR 14/M04 A2981 RMK AO2 PK WND 35028/0008 SLP093 T01441039
KSET 
25nm E 
200054Z AUTO 35012KT 10SM CLR 13/M01 A2981 RMK AO2 SLP093 T01281011
KSTL 
31nm SE 
200051Z 35010KT 10SM FEW070 FEW150 13/M01 A2980 RMK AO2 SLP093 T01281011
KPPQ 
40nm N 
200135Z AUTO 34011G14KT 10SM CLR 12/M03 A2986 RMK AO2 T01241026
KMYJ 
41nm W 
200135Z AUTO 34008KT 10SM CLR 11/M01 A2988 RMK AO2
KALN 
44nm E 
200050Z 35015G22KT 10SM SKC 12/01 A2979
KCPS 
45nm SE 
200053Z 36016G23KT 10SM CLR 13/01 A2978 RMK AO2 PK WND 36026/0003 SLP085 T01280006
TAF
KSUS 
25nm SE 
191727Z 1918/2018 36015G23KT P6SM OVC035 FM192200 35016G28KT P6SM SCT050 FM200300 33007KT P6SM SKC
NOTAMs
Click for the latest NOTAMs
NOTAMs are issued by the DoD/FAA and will open in a separate window not controlled by AirNav.

 

 
 

Would you like to see your business listed on this page?

 If your business provides an interesting product or service to pilots, flight crews, aircraft, or users of the Landing Pad, you should consider listing it here.  To start the listing process, click on the button below
 
Add a business
 

Other Pages about Landing Pad

Update a link
 
Copyright © AirNav, LLC. All rights reserved. Privacy Policy  Contact